Location: Chochol
(49.7771°N, 14.9780°E)
Time: 02:22:46
(UTC+00:00)

CZ-4C R/B - Pass Details

Date: 09 April 2020
Orbit: 636 x 1365 km, 63.4° (Epoch: 06 June)

Event Time Altitude Azimuth Distance (km) Brightness Sun altitude
Rises 22:38:48 0° 312° (NW) 3,898 6.3 -32.0°
Reaches altitude 10° 22:41:42 10° 302° (WNW) 3,045 5.5 -32.0°
Enters shadow 22:46:52 28° 258° (WSW) 2,143 4.1 -32.1°
